Regional Weather Roundup
Issued by NWS

Home | Current Version | Previous Version | Text Only | Print | Product List | Glossary On
Versions: 1 2 3 4 5 6 7 8 9 10 11 12 13 14 15 16 17 18 19 20 21 22 23 24 25 26 27 28 29 30 31 32 33 34 35 36 37 38 39 40 41 42 43 44 45 46 47 48 49 50
000
ASUS43 KFSD 302210
RWRSD

WEATHER ROUNDUP FOR SOUTH DAKOTA
NATIONAL WEATHER SERVICE SIOUX FALLS SD
500 PM CDT TUE AUG 30 2016

NOTE: "FAIR" INDICATES FEW OR NO CLOUDS BELOW 12,000 FEET WITH NO
SIGNIFICANT WEATHER AND/OR OBSTRUCTIONS TO VISIBILITY.


SDZ001>005-009-010-012>017-302300-
NORTHWEST AND NORTH CENTRAL SOUTH DAKOTA

CITY           SKY/WX    TMP DP  RH WIND       PRES   REMARKS
BUFFALO          N/A     85  59  41 SE14      30.11F
FAITH            N/A     88  62  41 S12G18    30.16F
MOBRIDGE       SUNNY     89  58  34 SE12      30.13F
$$

SDZ012>016-024>037-041>051-057-063-072>074-302300-
SOUTHWEST AND SOUTH CENTRAL SOUTH DAKOTA

CITY           SKY/WX    TMP DP  RH WIND       PRES   REMARKS
RAPID CTY ARPT SUNNY     85  58  39 S10       30.19F
PIERRE         CLOUDY    88  64  44 SE12      30.11F
CUSTER         MOSUNNY   78  48  34 E12G22    30.34S
ELLSWORTH AFB  SUNNY     85  60  42 S10       30.18F
PHILIP         SUNNY     88  61  40 SE7       30.14F
PINE RIDGE     MOSUNNY   87  55  33 SE13      30.19F
WINNER         FAIR      90  63  40 SE12      30.15F
$$

SDZ004>011-016>023-039-040-302300-
NORTHEAST SOUTH DAKOTA

CITY           SKY/WX    TMP DP  RH WIND       PRES   REMARKS
ABERDEEN       SUNNY     84  54  35 NE13      30.17F
WATERTOWN      SUNNY     81  53  37 NE9       30.20F
BROOKINGS      SUNNY     79  63  57 NE9       30.20S
SISSETON         N/A     82  51  34 VRB3      30.19S
$$

SDZ017-020-022-023-036>040-048>070-302300-
SOUTHEAST SOUTH DAKOTA

CITY           SKY/WX    TMP DP  RH WIND       PRES   REMARKS
SIOUX FALLS    CLOUDY    83  70  64 E7        30.18S
HURON          SUNNY     84  62  47 E10       30.15F
CHAMBERLAIN    SUNNY     90  64  42 SE6       30.14F
MITCHELL       PTSUNNY   87  67  51 E10       30.14F
YANKTON        MOSUNNY   82  64  54 CALM      30.13F
$$

ABBREVIATIONS USED IN REMARKS
   TC - TEMPERATURE IN CELSIUS
  WCI - WIND CHILL INDEX
   HX - HEAT INDEX
  VSB - VISIBILITY





USA.gov is the U.S. government's official web portal to all federal, state and local government web resources and services.